| time (UTC) | temp F | wind direction | speed knots | gust knots | rain 1hr in | rain 24hr in | rain mn in | humidity % | barometer mb |
| 20260901070111 | 53 | 158 | 2.6 | 5.2 | 0.00 | 0.00 | 0.00 | 71 | 1012.8 |
| 20260901064537 | 53 | 153 | 3.5 | 5.2 | 0.00 | 0.00 | 0.00 | 70 | 1012.9 |
| 20260901063035 | 53 | 157 | 3.5 | 5.2 | 0.00 | 0.00 | 0.00 | 71 | 1013.1 |
| 20260901053037 | 55 | 145 | 2.6 | 6.1 | 0.00 | 0.00 | 0.00 | 71 | 1013.2 |
| 20260901051534 | 55 | 136 | 3.5 | 7.0 | 0.00 | 0.00 | 0.00 | 71 | 1013.2 |
| 20260901050032 | 56 | 151 | 2.6 | 5.2 | 0.00 | 0.00 | 0.00 | 69 | 1013.3 |
| 20260901043030 | 56 | 150 | 2.6 | 5.2 | 0.00 | 0.00 | 0.00 | 69 | 1013.1 |
| 20260901041535 | 57 | 155 | 3.5 | 6.1 | 0.00 | 0.00 | 0.00 | 68 | 1013.0 |
| 20260901040035 | 58 | 163 | 3.5 | 5.2 | 0.00 | 0.00 | 0.00 | 68 | 1012.9 |
| 20260901034534 | 59 | 183 | 2.6 | 4.3 | 0.00 | 0.00 | 0.00 | 68 | 1012.8 |
| 20260901033037 | 60 | 149 | 2.6 | 6.1 | 0.00 | 0.00 | 0.00 | 65 | 1012.7 |
| 20260901023035 | 62 | 160 | 3.5 | 6.1 | 0.00 | 0.00 | 0.00 | 67 | 1012.4 |
| 20260901021535 | 63 | 155 | 3.5 | 6.1 | 0.00 | 0.00 | 0.00 | 71 | 1012.3 |
| 20260901020036 | 64 | 149 | 3.5 | 6.1 | 0.00 | 0.00 | 0.00 | 69 | 1012.3 |
| 20260901014535 | 68 | 140 | 2.6 | 4.3 | 0.00 | 0.00 | 0.00 | 64 | 1012.3 |
| 20260901011531 | 75 | 232 | 1.7 | 4.3 | 0.00 | 0.00 | 0.00 | 47 | 1012.3 |
| 20260901010032 | 77 | 247 | 1.7 | 5.2 | 0.00 | 0.00 | 0.00 | 41 | 1012.3 |
| 20260901004609 | 78 | 258 | 2.6 | 7.0 | 0.00 | 0.00 | 0.00 | 36 | 1012.3 |
| 20260901003109 | 78 | 272 | 4.3 | 9.6 | 0.00 | 0.00 | 0.00 | 35 | 1012.4 |
| 20260901001529 | 79 | 274 | 3.5 | 9.6 | 0.00 | 0.00 | 0.00 | 36 | 1012.4 |
| 20260901000035 | 80 | 281 | 3.5 | 8.7 | 0.00 | 0.00 | 0.00 | 37 | 1012.5 |
| 20260831234535 | 78 | 272 | 3.5 | 9.6 | 0.00 | 0.00 | 0.00 | 37 | 1012.5 |
| 20260831233033 | 79 | 260 | 3.5 | 10.4 | 0.00 | 0.00 | 0.00 | 37 | 1012.7 |
| 20260831231532 | 80 | 263 | 4.3 | 9.6 | 0.00 | 0.00 | 0.00 | 38 | 1012.9 |
| 20260831230037 | 80 | 245 | 2.6 | 8.7 | 0.00 | 0.00 | 0.00 | 37 | 1013.0 |
| 20260831224535 | 80 | 271 | 4.3 | 12.2 | 0.00 | 0.00 | 0.00 | 37 | 1013.2 |
| 20260831223035 | 80 | 256 | 4.3 | 9.6 | 0.00 | 0.00 | 0.00 | 38 | 1013.3 |
| 20260831221533 | 79 | 259 | 4.3 | 12.2 | 0.00 | 0.00 | 0.00 | 39 | 1013.5 |
| 20260831220032 | 78 | 259 | 5.2 | 11.3 | 0.00 | 0.00 | 0.00 | 39 | 1013.7 |
| 20260831214642 | 77 | 265 | 6.1 | 13.0 | 0.00 | 0.00 | 0.00 | 40 | 1013.8 |
| 20260831211538 | 77 | 275 | 6.1 | 13.0 | 0.00 | 0.00 | 0.00 | 40 | 1014.1 |
| 20260831204534 | 77 | 246 | 5.2 | 10.4 | 0.00 | 0.00 | 0.00 | 43 | 1014.3 |
| 20260831203029 | 76 | 255 | 3.5 | 7.8 | 0.00 | 0.00 | 0.00 | 42 | 1014.5 |
| 20260831201540 | 75 | 277 | 3.5 | 8.7 | 0.00 | 0.00 | 0.00 | 45 | 1014.8 |
| 20260831201533 | 74 | 259 | 3.5 | 10.4 | 0.00 | 0.00 | 0.00 | 46 | 1015.0 |
| 20260831194532 | 73 | 240 | 2.6 | 7.8 | 0.00 | 0.00 | 0.00 | 49 | 1015.3 |
| 20260831193108 | 72 | 251 | 4.3 | 10.4 | 0.00 | 0.00 | 0.00 | 48 | 1015.5 |
| 20260831191536 | 72 | 276 | 3.5 | 9.6 | 0.00 | 0.00 | 0.00 | 50 | 1015.7 |
| 20260831190034 | 71 | 294 | 3.5 | 8.7 | 0.00 | 0.00 | 0.00 | 52 | 1016.0 |
| 20260831184535 | 70 | 249 | 1.7 | 5.2 | 0.00 | 0.00 | 0.00 | 54 | 1016.3 |
| 20260831183031 | 69 | 290 | 1.7 | 6.1 | 0.00 | 0.00 | 0.00 | 56 | 1016.5 |
| 20260831181536 | 68 | 295 | 1.7 | 6.1 | 0.00 | 0.00 | 0.00 | 57 | 1016.7 |
| 20260831174536 | 66 | 295 | 0.9 | 5.2 | 0.00 | 0.00 | 0.00 | 58 | 1017.1 |
| 20260831173109 | 65 | 282 | 0.9 | 5.2 | 0.00 | 0.00 | 0.00 | 59 | 1017.2 |
| 20260831171534 | 64 | 289 | 0.9 | 4.3 | 0.00 | 0.00 | 0.00 | 61 | 1017.3 |
| 20260831170036 | 63 | 277 | 1.7 | 4.3 | 0.00 | 0.00 | 0.00 | 61 | 1017.5 |
| 20260831164532 | 62 | 274 | 0.0 | 4.3 | 0.00 | 0.00 | 0.00 | 64 | 1017.7 |
| 20260831163035 | 61 | 290 | 0.9 | 4.3 | 0.00 | 0.00 | 0.00 | 68 | 1017.8 |
| 20260831161659 | 58 | 294 | 0.0 | 3.5 | 0.00 | 0.00 | 0.00 | 73 | 1017.8 |
| 20260831160033 | 57 | 132 | 0.0 | 0.0 | 0.00 | 0.00 | 0.00 | 75 | 1017.9 |
| 20260831154532 | 55 | 135 | 0.0 | 1.7 | 0.00 | 0.00 | 0.00 | 81 | 1017.9 |
| 20260831153034 | 52 | 136 | 0.9 | 2.6 | 0.00 | 0.00 | 0.00 | 86 | 1017.9 |
| 20260831151530 | 49 | 137 | 1.7 | 3.5 | 0.00 | 0.00 | 0.00 | 91 | 1017.9 |
| 20260831150035 | 46 | 149 | 1.7 | 4.3 | 0.00 | 0.00 | 0.00 | 92 | 1017.9 |
| 20260831144533 | 45 | 149 | 2.6 | 4.3 | 0.00 | 0.00 | 0.00 | 93 | 1017.8 |
| 20260831143033 | 44 | 155 | 3.5 | 5.2 | 0.00 | 0.00 | 0.00 | 93 | 1017.6 |
| 20260831141532 | 43 | 145 | 2.6 | 5.2 | 0.00 | 0.00 | 0.00 | 93 | 1017.6 |
| 20260831140036 | 43 | 153 | 2.6 | 4.3 | 0.00 | 0.00 | 0.00 | 93 | 1017.5 |
| 20260831134534 | 43 | 152 | 3.5 | 5.2 | 0.00 | 0.00 | 0.00 | 93 | 1017.5 |
| 20260831133033 | 43 | 157 | 3.5 | 4.3 | 0.00 | 0.00 | 0.00 | 92 | 1017.4 |
| 20260831131533 | 43 | 145 | 3.5 | 5.2 | 0.00 | 0.00 | 0.00 | 92 | 1017.5 |
| 20260831130034 | 44 | 153 | 3.5 | 5.2 | 0.00 | 0.00 | 0.00 | 92 | 1017.6 |
| 20260831124612 | 44 | 157 | 3.5 | 5.2 | 0.00 | 0.00 | 0.00 | 91 | 1017.5 |
| 20260831123034 | 44 | 168 | 3.5 | 5.2 | 0.00 | 0.00 | 0.00 | 91 | 1017.4 |
| 20260831121536 | 44 | 161 | 2.6 | 4.3 | 0.00 | 0.00 | 0.00 | 91 | 1017.4 |
| 20260831120110 | 44 | 160 | 3.5 | 4.3 | 0.00 | 0.00 | 0.00 | 91 | 1017.5 |
| 20260831113033 | 45 | 153 | 2.6 | 5.2 | 0.00 | 0.00 | 0.00 | 90 | 1017.6 |
| 20260831111536 | 45 | 149 | 2.6 | 5.2 | 0.00 | 0.00 | 0.00 | 90 | 1017.6 |
| 20260831110036 | 46 | 147 | 3.5 | 5.2 | 0.00 | 0.00 | 0.00 | 90 | 1017.7 |
| 20260831104536 | 45 | 157 | 3.5 | 5.2 | 0.00 | 0.00 | 0.00 | 90 | 1017.7 |
| 20260831103035 | 45 | 154 | 2.6 | 4.3 | 0.00 | 0.00 | 0.00 | 89 | 1017.8 |
| 20260831101534 | 46 | 156 | 3.5 | 4.3 | 0.00 | 0.00 | 0.00 | 89 | 1017.8 |
| 20260831100034 | 46 | 153 | 3.5 | 5.2 | 0.00 | 0.00 | 0.00 | 89 | 1017.9 |
| 20260831094534 | 46 | 155 | 3.5 | 5.2 | 0.00 | 0.00 | 0.00 | 89 | 1018.1 |
| 20260831093031 | 46 | 150 | 2.6 | 5.2 | 0.00 | 0.00 | 0.00 | 88 | 1018.2 |
| 20260831091537 | 47 | 154 | 2.6 | 3.5 | 0.00 | 0.00 | 0.00 | 88 | 1018.3 |
| 20260831090035 | 47 | 152 | 2.6 | 4.3 | 0.00 | 0.00 | 0.00 | 89 | 1018.3 |
| 20260831084534 | 47 | 153 | 2.6 | 4.3 | 0.00 | 0.00 | 0.00 | 89 | 1018.4 |
| 20260831083033 | 46 | 152 | 2.6 | 4.3 | 0.00 | 0.00 | 0.00 | 89 | 1018.6 |
| 20260831081535 | 47 | 149 | 2.6 | 4.3 | 0.00 | 0.00 | 0.00 | 88 | 1018.7 |
| 20260831080035 | 47 | 148 | 2.6 | 4.3 | 0.00 | 0.00 | 0.00 | 88 | 1018.8 |
| 20260831074535 | 48 | 155 | 2.6 | 4.3 | 0.00 | 0.00 | 0.00 | 88 | 1018.8 |
| 20260831073033 | 48 | 153 | 2.6 | 5.2 | 0.00 | 0.00 | 0.00 | 88 | 1018.8 |